CZ-6A DEB

Satellite information

Favourite Embed

Satellite Type and Status

DEBRISIN ORBIT

Key statistics

Satellite CZ-6A DEB at a glance.

Uptime

395

Days in orbit

Revolutions

≈ 14.2

Per day

Orbit

LEO

Low Earth Orbit

Inclination

89.0

Latest

Satellite identification and parameters

Extended collection of information and parameters for CZ-6A DEB.

Object identification

Identified? True

Debris? True

Object name: CZ-6A DEB

International designator: 2024-140KF

Object number (NORAD): 60876

Object ID (CCSDS): 60876

Country: PEOPLES REPUBLIC OF CHINA (PRC)

Current information (Y/N): Y

RCS size: SMALL

Orbital parameters

Period: 101.52 minutes

Inclination: 89.0387 deg

SMA: 7208.777 km

Apoapsis: 872.778 km

Periapsis: 788.505 km

RAAN: 308.8635 deg

Eccentricy: 0.00584519

Argument of periapsis: 36.5654 deg

Mean anomaly: 323.9503 deg

Mean motion: 14.18438175 rev/day

Mean motion (dot): 0.00002802 rev/day2

B* drag term: 0.0013285323 1/REarth

Two-line elements (TLE)

Creation date: Sept. 3, 2025, 10:15 a.m.

Reference frame: TEME

Reference center: EARTH

Epoch: Sept. 3, 2025, 2:49 a.m. UTC

TLE line 0: 0 CZ-6A DEB

TLE line 1: 1 60876U 24140KF 25246.11740298 .00002802 00000-0 13285-2 0 9992

TLE line 2: 2 60876 89.0387 308.8635 0058452 36.5654 323.9503 14.18438175 54220

Live tracking on map

Real-time ground track for satellite CZ-6A DEB.

In-orbit conjunctions

A list of the most updated potential collisions computed for object CZ-6A DEB.

Target Orbit TCA Probability of collision Miss distance Type
CZ-6A DEB SSO 2025-05-01 05:45:06 0.0001160615 296.0 (m) DEBRIS
FENGYUN 1C DEB SSO 2025-04-25 18:56:38 0.0001118305 167.0 (m) DEBRIS
CZ-6A DEB LEO 2025-03-02 00:29:13 0.0001093301 705.0 (m) DEBRIS
DMSP 5D-2 F11 DEB SSO 2025-02-27 14:01:12 0.0002685773 412.0 (m) DEBRIS
SL-14 DEB LEO 2024-12-02 22:54:47 0.000115999 567.0 (m) DEBRIS

Associated space launch

18 Low Earth Orbit communication satellites with Ku, Q and V band payloads for the G60 constellation operated by Shanghai Spacecom Satellite Technology (SSST) with funding backed by the Shanghai local government. Initial constellation will consist of 1296 satellites by 2027 with long term plans to expand it to 12000 satellites.

CZ-6A DEB was lifted into orbit during the mission ‘Long March 6A | G60 Polar Group 01’, on board a Long March 6A space rocket.

The launch took place on Aug. 6, 2024, 6:42 a.m. from Launch Complex 9A.

For more information about the launch, click the button.

Launch to space Long March 6A | G60 Polar Group 01
Long March 6A | G60 Polar Group 01

Agency: N/A

Status: Launch Successful

Launch date: Aug. 6, 2024, 6:42 a.m. UTC

Rocket: Long March 6A

Launch pad: Launch Complex 9A

Location: Taiyuan Satellite Launch Center, People's Republic of China

...

Latest news about this satellite

News about space launch
Brightness of first Chinese broadband constellation satellites alarms astronomers

The first satellites of a Chinese broadband constellation are significantly brighter than those of Western systems, posing a new challenge for astronomers.

News about space launch
Chinese rocket stage breaks up into cloud of more than 700 pieces of space debris

HELSINKI — A Chinese Long March 6A rocket’s upper stage has fragmented into a cloud of over 700 pieces of space debris, adding to concerns about long-term orbital safety. China […]

News about space launch
China's Thousand Sails Megaconstellation Kicks Off with Dangerous Debris Field

China's Thousand Sails Megaconstellation Kicks Off with Dangerous Debris Field


Newsletter sign-up

Weekly statistics, charts and insights to help you stay on top of the space industry.